Time,TemperatureF,DewpointF,PressureIn,WindDirection,WindDirectionDegrees,WindSpeedMPH,WindSpeedGustMPH,Humidity,HourlyPrecipIn,Conditions,Clouds,dailyrainin,SoftwareType,DateUTC
2013-06-03 00:00:00,76.6,46.9,29.57,SE,140,5.0,6.0,35,0.00,,,0.00,Wunderground v.1.15,2013-06-03 06:00:00,
2013-06-03 00:05:00,76.8,46.3,29.55,SE,129,5.0,6.0,34,0.00,,,0.00,Wunderground v.1.15,2013-06-03 06:05:00,
2013-06-03 00:15:00,76.9,46.4,29.55,SE,132,5.0,6.0,34,0.00,,,0.00,Wunderground v.1.15,2013-06-03 06:15:00,
2013-06-03 00:20:00,76.8,46.3,29.55,SE,125,4.0,5.0,34,0.00,,,0.00,Wunderground v.1.15,2013-06-03 06:20:00,
2013-06-03 00:25:00,76.6,46.9,29.56,SE,131,4.0,6.0,35,0.00,,,0.00,Wunderground v.1.15,2013-06-03 06:25:00,
2013-06-03 00:30:00,76.3,46.6,29.57,SE,142,6.0,6.0,35,0.00,,,0.00,Wunderground v.1.15,2013-06-03 06:30:00,
2013-06-03 00:40:00,75.6,47.5,29.58,ESE,119,6.0,6.0,37,0.00,,,0.00,Wunderground v.1.15,2013-06-03 06:40:00,
2013-06-03 00:45:00,75.2,47.1,29.57,SSE,155,5.0,6.0,37,0.00,,,0.00,Wunderground v.1.15,2013-06-03 06:45:00,
2013-06-03 00:50:00,74.9,47.6,29.58,SSE,155,4.0,7.0,38,0.00,,,0.00,Wunderground v.1.15,2013-06-03 06:50:00,
2013-06-03 01:00:00,74.4,47.8,29.58,SE,143,5.0,5.0,39,0.00,,,0.00,Wunderground v.1.15,2013-06-03 07:00:00,
2013-06-03 01:05:00,74.1,48.2,29.59,SE,136,4.0,5.0,40,0.00,,,0.00,Wunderground v.1.15,2013-06-03 07:05:00,
2013-06-03 01:15:00,73.5,49.6,29.59,ESE,115,1.0,2.0,43,0.00,,,0.00,Wunderground v.1.15,2013-06-03 07:15:00,
2013-06-03 01:20:00,73.0,50.4,29.60,East,86,2.0,3.0,45,0.00,,,0.00,Wunderground v.1.15,2013-06-03 07:20:00,
2013-06-03 01:25:00,72.7,50.1,29.60,ESE,111,2.0,3.0,45,0.00,,,0.00,Wunderground v.1.15,2013-06-03 07:25:00,
2013-06-03 01:35:00,72.1,50.8,29.61,SE,146,1.0,2.0,47,0.00,,,0.00,Wunderground v.1.15,2013-06-03 07:35:00,
2013-06-03 01:45:00,71.6,51.4,29.61,SE,136,1.0,3.0,49,0.00,,,0.00,Wunderground v.1.15,2013-06-03 07:45:00,
2013-06-03 01:50:00,71.3,51.1,29.61,SSE,160,1.0,5.0,49,0.00,,,0.00,Wunderground v.1.15,2013-06-03 07:50:00,
2013-06-03 01:55:00,71.2,51.6,29.61,ENE,57,1.0,5.0,50,0.00,,,0.00,Wunderground v.1.15,2013-06-03 07:55:00,
2013-06-03 02:00:00,71.1,51.5,29.61,East,98,1.0,1.0,50,0.00,,,0.00,Wunderground v.1.15,2013-06-03 08:00:00,
2013-06-03 02:05:00,70.9,51.3,29.61,SE,132,0.0,1.0,50,0.00,,,0.00,Wunderground v.1.15,2013-06-03 08:05:00,
2013-06-03 02:15:00,70.7,51.1,29.61,SE,137,1.0,1.0,50,0.00,,,0.00,Wunderground v.1.15,2013-06-03 08:15:00,
2013-06-03 02:20:00,70.6,51.6,29.61,ESE,105,0.0,0.0,51,0.00,,,0.00,Wunderground v.1.15,2013-06-03 08:20:00,
2013-06-03 02:25:00,70.5,51.5,29.61,ENE,69,0.0,0.0,51,0.00,,,0.00,Wunderground v.1.15,2013-06-03 08:25:00,
2013-06-03 02:30:00,70.4,51.4,29.61,East,98,0.0,0.0,51,0.00,,,0.00,Wunderground v.1.15,2013-06-03 08:30:00,
2013-06-03 02:35:00,70.3,51.3,29.61,ESE,111,0.0,0.0,51,0.00,,,0.00,Wunderground v.1.15,2013-06-03 08:35:00,
2013-06-03 02:40:00,70.2,51.2,29.61,ESE,104,0.0,0.0,51,0.00,,,0.00,Wunderground v.1.15,2013-06-03 08:40:00,
2013-06-03 02:45:00,70.1,51.1,29.61,ENE,71,0.0,0.0,51,0.00,,,0.00,Wunderground v.1.15,2013-06-03 08:45:00,
2013-06-03 02:55:00,70.0,51.0,29.61,ENE,75,0.0,0.0,51,0.00,,,0.00,Wunderground v.1.15,2013-06-03 08:55:00,
2013-06-03 03:00:00,70.0,51.6,29.61,East,98,0.0,0.0,52,0.00,,,0.00,Wunderground v.1.15,2013-06-03 09:00:00,
2013-06-03 03:05:00,69.9,51.5,29.61,East,92,0.0,0.0,52,0.00,,,0.00,Wunderground v.1.15,2013-06-03 09:05:00,
2013-06-03 03:15:00,69.7,51.3,29.61,ESE,109,0.0,0.0,52,0.00,,,0.00,Wunderground v.1.15,2013-06-03 09:15:00,
2013-06-03 03:20:00,69.6,51.2,29.61,ESE,111,0.0,0.0,52,0.00,,,0.00,Wunderground v.1.15,2013-06-03 09:20:00,
2013-06-03 03:25:00,69.5,51.1,29.61,ESE,107,0.0,0.0,52,0.00,,,0.00,Wunderground v.1.15,2013-06-03 09:25:00,
2013-06-03 03:30:00,69.5,51.1,29.61,SSE,162,0.0,0.0,52,0.00,,,0.00,Wunderground v.1.15,2013-06-03 09:30:00,
2013-06-03 03:35:00,69.4,51.5,29.61,ESE,117,0.0,0.0,53,0.00,,,0.00,Wunderground v.1.15,2013-06-03 09:35:00,
2013-06-03 03:40:00,69.3,51.4,29.61,ESE,123,0.0,0.0,53,0.00,,,0.00,Wunderground v.1.15,2013-06-03 09:40:00,
2013-06-03 03:50:00,69.1,51.2,29.61,SE,129,0.0,0.0,53,0.00,,,0.00,Wunderground v.1.15,2013-06-03 09:50:00,
2013-06-03 03:55:00,69.0,51.2,29.61,SE,129,0.0,0.0,53,0.00,,,0.00,Wunderground v.1.15,2013-06-03 09:55:00,
2013-06-03 04:00:00,69.0,51.2,29.61,SE,129,0.0,0.0,53,0.00,,,0.00,Wunderground v.1.15,2013-06-03 10:00:00,
2013-06-03 04:05:00,68.9,51.1,29.62,SE,129,0.0,0.0,53,0.00,,,0.00,Wunderground v.1.15,2013-06-03 10:05:00,
2013-06-03 04:15:00,68.8,51.0,29.62,SE,129,0.0,0.0,53,0.00,,,0.00,Wunderground v.1.15,2013-06-03 10:15:00,
2013-06-03 04:25:00,68.5,51.2,29.62,SE,130,0.0,0.0,54,0.00,,,0.00,Wunderground v.1.15,2013-06-03 10:25:00,
2013-06-03 04:30:00,68.4,51.1,29.62,ESE,118,0.0,0.0,54,0.00,,,0.00,Wunderground v.1.15,2013-06-03 10:30:00,
2013-06-03 04:35:00,68.5,51.2,29.62,SE,132,0.0,3.0,54,0.00,,,0.00,Wunderground v.1.15,2013-06-03 10:35:00,
2013-06-03 04:40:00,68.6,51.3,29.61,SSE,147,0.0,1.0,54,0.00,,,0.00,Wunderground v.1.15,2013-06-03 10:40:00,
2013-06-03 04:45:00,68.7,50.9,29.61,SE,140,0.0,1.0,53,0.00,,,0.00,Wunderground v.1.15,2013-06-03 10:45:00,
2013-06-03 04:55:00,68.9,51.1,29.62,ESE,123,0.0,0.0,53,0.00,,,0.00,Wunderground v.1.15,2013-06-03 10:55:00,
2013-06-03 05:00:00,69.0,51.2,29.62,SE,137,0.0,0.0,53,0.00,,,0.00,Wunderground v.1.15,2013-06-03 11:00:00,
2013-06-03 05:05:00,69.0,51.2,29.63,SE,138,0.0,0.0,53,0.00,,,0.00,Wunderground v.1.15,2013-06-03 11:05:00,
2013-06-03 05:15:00,68.9,51.6,29.62,ESE,122,0.0,0.0,54,0.00,,,0.00,Wunderground v.1.15,2013-06-03 11:15:00,
2013-06-03 05:20:00,68.9,51.6,29.63,ESE,114,0.0,0.0,54,0.00,,,0.00,Wunderground v.1.15,2013-06-03 11:20:00,
2013-06-03 05:25:00,68.8,51.5,29.63,ESE,114,0.0,0.0,54,0.00,,,0.00,Wunderground v.1.15,2013-06-03 11:25:00,
2013-06-03 05:30:00,68.8,51.5,29.63,ESE,114,0.0,0.0,54,0.00,,,0.00,Wunderground v.1.15,2013-06-03 11:30:00,
2013-06-03 05:35:00,68.7,51.4,29.63,ESE,114,0.0,0.0,54,0.00,,,0.00,Wunderground v.1.15,2013-06-03 11:35:00,
2013-06-03 05:40:00,68.6,51.8,29.63,ESE,114,0.0,0.0,55,0.00,,,0.00,Wunderground v.1.15,2013-06-03 11:40:00,
2013-06-03 05:45:00,68.5,51.7,29.62,ESE,112,0.0,0.0,55,0.00,,,0.00,Wunderground v.1.15,2013-06-03 11:45:00,
2013-06-03 05:50:00,68.4,51.6,29.64,ESE,118,0.0,0.0,55,0.00,,,0.00,Wunderground v.1.15,2013-06-03 11:50:00,
2013-06-03 06:00:00,68.3,51.5,29.64,ESE,117,0.0,0.0,55,0.00,,,0.00,Wunderground v.1.15,2013-06-03 12:00:00,
2013-06-03 06:05:00,68.3,51.5,29.65,ESE,117,0.0,0.0,55,0.00,,,0.00,Wunderground v.1.15,2013-06-03 12:05:00,
2013-06-03 06:15:00,68.1,51.8,29.65,ESE,115,0.0,0.0,56,0.00,,,0.00,Wunderground v.1.15,2013-06-03 12:15:00,
2013-06-03 06:20:00,68.1,51.8,29.65,ESE,115,0.0,0.0,56,0.00,,,0.00,Wunderground v.1.15,2013-06-03 12:20:00,
2013-06-03 06:25:00,68.0,51.7,29.65,ESE,115,0.0,0.0,56,0.00,,,0.00,Wunderground v.1.15,2013-06-03 12:25:00,
2013-06-03 06:30:00,68.0,51.7,29.65,ESE,115,0.0,0.0,56,0.00,,,0.00,Wunderground v.1.15,2013-06-03 12:30:00,
2013-06-03 06:40:00,67.9,52.1,29.65,ESE,115,0.0,0.0,57,0.00,,,0.00,Wunderground v.1.15,2013-06-03 12:40:00,
2013-06-03 06:45:00,67.9,52.1,29.65,ESE,115,0.0,0.0,57,0.00,,,0.00,Wunderground v.1.15,2013-06-03 12:45:00,
2013-06-03 06:50:00,67.9,52.1,29.66,ESE,115,0.0,0.0,57,0.00,,,0.00,Wunderground v.1.15,2013-06-03 12:50:00,
2013-06-03 06:55:00,67.9,52.1,29.65,ESE,115,0.0,0.0,57,0.00,,,0.00,Wunderground v.1.15,2013-06-03 12:55:00,
2013-06-03 07:00:00,68.1,52.3,29.66,ESE,115,0.0,0.0,57,0.00,,,0.00,Wunderground v.1.15,2013-06-03 13:00:00,
2013-06-03 07:05:00,68.3,52.5,29.70,ESE,115,0.0,0.0,57,0.00,,,0.00,Wunderground v.1.15,2013-06-03 13:05:00,
2013-06-03 07:15:00,68.9,52.6,29.71,ESE,115,0.0,0.0,56,0.00,,,0.00,Wunderground v.1.15,2013-06-03 13:15:00,
2013-06-03 07:20:00,69.4,52.5,29.71,ESE,115,0.0,0.0,55,0.00,,,0.00,Wunderground v.1.15,2013-06-03 13:20:00,
2013-06-03 07:25:00,69.9,52.5,29.70,ESE,115,0.0,0.0,54,0.00,,,0.00,Wunderground v.1.15,2013-06-03 13:25:00,
2013-06-03 07:35:00,71.0,52.5,29.70,ESE,117,0.0,0.0,52,0.00,,,0.00,Wunderground v.1.15,2013-06-03 13:35:00,
2013-06-03 07:40:00,71.6,52.5,29.70,ESE,115,0.0,0.0,51,0.00,,,0.00,Wunderground v.1.15,2013-06-03 13:40:00,
2013-06-03 07:50:00,72.7,52.4,29.70,SE,137,0.0,0.0,49,0.00,,,0.00,Wunderground v.1.15,2013-06-03 13:50:00,
2013-06-03 07:55:00,73.3,53.0,29.69,SE,134,0.0,0.0,49,0.00,,,0.00,Wunderground v.1.15,2013-06-03 13:55:00,
2013-06-03 08:00:00,73.8,52.9,29.68,ESE,109,0.0,0.0,48,0.00,,,0.00,Wunderground v.1.15,2013-06-03 14:00:00,
2013-06-03 08:05:00,74.4,52.9,29.68,ESE,103,0.0,0.0,47,0.00,,,0.00,Wunderground v.1.15,2013-06-03 14:05:00,
2013-06-03 08:15:00,75.2,52.4,29.69,East,88,0.0,1.0,45,0.00,,,0.00,Wunderground v.1.15,2013-06-03 14:15:00,
2013-06-03 08:20:00,75.6,52.8,29.68,ESE,119,0.0,0.0,45,0.00,,,0.00,Wunderground v.1.15,2013-06-03 14:20:00,
2013-06-03 08:25:00,76.0,53.1,29.68,SE,133,0.0,0.0,45,0.00,,,0.00,Wunderground v.1.15,2013-06-03 14:25:00,
2013-06-03 08:30:00,76.4,53.5,29.68,East,82,0.0,0.0,45,0.00,,,0.00,Wunderground v.1.15,2013-06-03 14:30:00,
2013-06-03 08:40:00,77.1,54.1,29.69,SSW,210,0.0,0.0,45,0.00,,,0.00,Wunderground v.1.15,2013-06-03 14:40:00,
2013-06-03 08:45:00,77.4,53.8,29.69,SE,126,0.0,1.0,44,0.00,,,0.00,Wunderground v.1.15,2013-06-03 14:45:00,
2013-06-03 08:55:00,78.1,54.4,29.68,SSW,199,0.0,0.0,44,0.00,,,0.00,Wunderground v.1.15,2013-06-03 14:55:00,
2013-06-03 09:00:00,78.4,53.4,29.68,East,91,0.0,2.0,42,0.00,,,0.00,Wunderground v.1.15,2013-06-03 15:00:00,
2013-06-03 09:05:00,78.7,53.0,29.69,ESE,119,0.0,2.0,41,0.00,,,0.00,Wunderground v.1.15,2013-06-03 15:05:00,
2013-06-03 09:15:00,79.0,53.3,29.69,ESE,113,0.0,0.0,41,0.00,,,0.00,Wunderground v.1.15,2013-06-03 15:15:00,
2013-06-03 09:20:00,79.4,53.6,29.69,ESE,107,0.0,0.0,41,0.00,,,0.00,Wunderground v.1.15,2013-06-03 15:20:00,
2013-06-03 09:25:00,79.8,54.0,29.68,ENE,71,0.0,0.0,41,0.00,,,0.00,Wunderground v.1.15,2013-06-03 15:25:00,
2013-06-03 09:30:00,80.2,53.7,29.68,SE,144,0.0,0.0,40,0.00,,,0.00,Wunderground v.1.15,2013-06-03 15:30:00,
2013-06-03 09:35:00,80.5,54.0,29.68,SE,130,0.0,0.0,40,0.00,,,0.00,Wunderground v.1.15,2013-06-03 15:35:00,
2013-06-03 09:40:00,80.8,53.5,29.68,ESE,111,0.0,0.0,39,0.00,,,0.00,Wunderground v.1.15,2013-06-03 15:40:00,
2013-06-03 09:45:00,81.3,54.0,29.68,East,90,0.0,0.0,39,0.00,,,0.00,Wunderground v.1.15,2013-06-03 15:45:00,
2013-06-03 09:55:00,82.0,53.9,29.67,ESE,107,0.0,0.0,38,0.00,,,0.00,Wunderground v.1.15,2013-06-03 15:55:00,
2013-06-03 10:05:00,82.8,54.6,29.68,SW,234,0.0,0.0,38,0.00,,,0.00,Wunderground v.1.15,2013-06-03 16:05:00,
2013-06-03 10:15:00,82.9,54.7,29.68,West,281,0.0,0.0,38,0.00,,,0.00,Wunderground v.1.15,2013-06-03 16:15:00,
2013-06-03 10:20:00,83.0,54.0,29.68,ESE,107,0.0,0.0,37,0.00,,,0.00,Wunderground v.1.15,2013-06-03 16:20:00,
2013-06-03 10:25:00,83.3,54.3,29.68,West,277,0.0,0.0,37,0.00,,,0.00,Wunderground v.1.15,2013-06-03 16:25:00,
2013-06-03 10:35:00,83.8,54.7,29.67,SSE,160,0.0,0.0,37,0.00,,,0.00,Wunderground v.1.15,2013-06-03 16:35:00,
2013-06-03 10:40:00,83.9,54.1,29.67,SSW,212,0.0,0.0,36,0.00,,,0.00,Wunderground v.1.15,2013-06-03 16:40:00,
2013-06-03 10:45:00,84.3,55.2,29.67,West,275,0.0,0.0,37,0.00,,,0.00,Wunderground v.1.15,2013-06-03 16:45:00,
2013-06-03 10:55:00,85.0,55.1,29.67,ESE,109,0.0,0.0,36,0.00,,,0.00,Wunderground v.1.15,2013-06-03 16:55:00,
2013-06-03 11:00:00,85.2,54.5,29.67,WSW,246,0.0,0.0,35,0.00,,,0.00,Wunderground v.1.15,2013-06-03 17:00:00,
2013-06-03 11:05:00,85.5,54.7,29.66,NNW,332,0.0,0.0,35,0.00,,,0.00,Wunderground v.1.15,2013-06-03 17:05:00,
2013-06-03 11:15:00,85.6,54.8,29.66,ESE,122,0.0,1.0,35,0.00,,,0.00,Wunderground v.1.15,2013-06-03 17:15:00,
2013-06-03 11:20:00,85.9,54.3,29.66,WNW,298,0.0,0.0,34,0.00,,,0.00,Wunderground v.1.15,2013-06-03 17:20:00,
2013-06-03 11:25:00,86.1,54.5,29.66,ESE,122,0.0,0.0,34,0.00,,,0.00,Wunderground v.1.15,2013-06-03 17:25:00,
2013-06-03 11:30:00,86.5,54.8,29.66,SE,146,0.0,0.0,34,0.00,,,0.00,Wunderground v.1.15,2013-06-03 17:30:00,
2013-06-03 11:35:00,86.8,54.2,29.65,SSE,159,0.0,0.0,33,0.00,,,0.00,Wunderground v.1.15,2013-06-03 17:35:00,
2013-06-03 11:40:00,87.3,54.7,29.65,West,273,0.0,0.0,33,0.00,,,0.00,Wunderground v.1.15,2013-06-03 17:40:00,
2013-06-03 11:45:00,87.6,54.1,29.65,SE,135,0.0,0.0,32,0.00,,,0.00,Wunderground v.1.15,2013-06-03 17:45:00,
2013-06-03 11:50:00,87.9,53.5,29.65,ESE,107,0.0,0.0,31,0.00,,,0.00,Wunderground v.1.15,2013-06-03 17:50:00,
2013-06-03 11:55:00,88.3,53.8,29.65,SE,126,0.0,4.0,31,0.00,,,0.00,Wunderground v.1.15,2013-06-03 17:55:00,
2013-06-03 12:00:00,88.6,54.1,29.64,SE,128,0.0,0.0,31,0.00,,,0.00,Wunderground v.1.15,2013-06-03 18:00:00,
2013-06-03 12:10:00,89.8,54.2,29.65,West,262,0.0,0.0,30,0.00,,,0.00,Wunderground v.1.15,2013-06-03 18:10:00,
2013-06-03 12:15:00,90.8,54.2,29.64,West,277,0.0,0.0,29,0.00,,,0.00,Wunderground v.1.15,2013-06-03 18:15:00,
2013-06-03 12:20:00,91.2,53.5,29.64,ESE,123,0.0,0.0,28,0.00,,,0.00,Wunderground v.1.15,2013-06-03 18:20:00,
2013-06-03 12:25:00,91.5,53.8,29.63,NW,326,0.0,0.0,28,0.00,,,0.00,Wunderground v.1.15,2013-06-03 18:25:00,
2013-06-03 12:30:00,92.1,54.3,29.63,WNW,299,0.0,0.0,28,0.00,,,0.00,Wunderground v.1.15,2013-06-03 18:30:00,
2013-06-03 12:35:00,92.2,54.4,29.63,NW,306,0.0,0.0,28,0.00,,,0.00,Wunderground v.1.15,2013-06-03 18:35:00,
2013-06-03 12:40:00,92.1,53.3,29.62,ESE,122,1.0,2.0,27,0.00,,,0.00,Wunderground v.1.15,2013-06-03 18:40:00,
2013-06-03 12:50:00,91.8,53.1,29.62,SE,141,1.0,1.0,27,0.00,,,0.00,Wunderground v.1.15,2013-06-03 18:50:00,
2013-06-03 12:55:00,92.1,53.3,29.61,SSE,150,0.0,1.0,27,0.00,,,0.00,Wunderground v.1.15,2013-06-03 18:55:00,
2013-06-03 13:00:00,92.2,53.4,29.61,ESE,123,0.0,1.0,27,0.00,,,0.00,Wunderground v.1.15,2013-06-03 19:00:00,
2013-06-03 13:05:00,92.5,53.7,29.63,South,186,0.0,1.0,27,0.00,,,0.00,Wunderground v.1.15,2013-06-03 19:05:00,
2013-06-03 13:15:00,92.7,52.8,29.61,SE,134,1.0,1.0,26,0.00,,,0.00,Wunderground v.1.15,2013-06-03 19:15:00,
2013-06-03 13:20:00,92.9,53.0,29.61,SSE,150,0.0,0.0,26,0.00,,,0.00,Wunderground v.1.15,2013-06-03 19:20:00,
2013-06-03 13:25:00,93.1,52.1,29.60,South,182,0.0,0.0,25,0.00,,,0.00,Wunderground v.1.15,2013-06-03 19:25:00,
2013-06-03 13:35:00,93.8,51.5,29.60,SE,137,0.0,0.0,24,0.00,,,0.00,Wunderground v.1.15,2013-06-03 19:35:00,
2013-06-03 13:40:00,94.1,51.8,29.60,SSW,196,0.0,0.0,24,0.00,,,0.00,Wunderground v.1.15,2013-06-03 19:40:00,
2013-06-03 13:45:00,94.3,50.8,29.59,SE,134,0.0,0.0,23,0.00,,,0.00,Wunderground v.1.15,2013-06-03 19:45:00,
2013-06-03 13:55:00,95.1,50.3,29.58,SSW,195,0.0,0.0,22,0.00,,,0.00,Wunderground v.1.15,2013-06-03 19:55:00,
2013-06-03 14:00:00,95.9,52.1,29.58,WSW,256,0.0,0.0,23,0.00,,,0.00,Wunderground v.1.15,2013-06-03 20:00:00,
2013-06-03 14:05:00,96.2,48.6,29.58,SE,136,0.0,0.0,20,0.00,,,0.00,Wunderground v.1.15,2013-06-03 20:05:00,
2013-06-03 14:15:00,96.8,50.4,29.57,NNW,334,0.0,0.0,21,0.00,,,0.00,Wunderground v.1.15,2013-06-03 20:15:00,
2013-06-03 14:20:00,97.0,50.6,29.57,WNW,294,0.0,0.0,21,0.00,,,0.00,Wunderground v.1.15,2013-06-03 20:20:00,
2013-06-03 14:30:00,97.0,51.9,29.56,NNW,348,0.0,1.0,22,0.00,,,0.00,Wunderground v.1.15,2013-06-03 20:30:00,
2013-06-03 14:40:00,97.5,49.7,29.55,SE,126,0.0,0.0,20,0.00,,,0.00,Wunderground v.1.15,2013-06-03 20:40:00,
2013-06-03 14:45:00,97.6,51.1,29.55,West,278,0.0,0.0,21,0.00,,,0.00,Wunderground v.1.15,2013-06-03 20:45:00,
2013-06-03 14:50:00,97.7,51.2,29.54,WSW,253,0.0,0.0,21,0.00,,,0.00,Wunderground v.1.15,2013-06-03 20:50:00,
2013-06-03 14:55:00,97.8,49.9,29.55,ESE,112,0.0,0.0,20,0.00,,,0.00,Wunderground v.1.15,2013-06-03 20:55:00,
2013-06-03 15:00:00,97.8,49.9,29.54,SE,136,1.0,1.0,20,0.00,,,0.00,Wunderground v.1.15,2013-06-03 21:00:00,
2013-06-03 15:05:00,98.0,45.8,29.55,West,265,1.0,1.0,17,0.00,,,0.00,Wunderground v.1.15,2013-06-03 21:05:00,
2013-06-03 15:15:00,98.7,43.0,29.54,West,261,1.0,1.0,15,0.00,,,0.00,Wunderground v.1.15,2013-06-03 21:15:00,
2013-06-03 15:20:00,98.5,46.2,29.54,West,281,1.0,1.0,17,0.00,,,0.00,Wunderground v.1.15,2013-06-03 21:20:00,
2013-06-03 15:30:00,98.0,45.8,29.55,ESE,104,1.0,1.0,17,0.00,,,0.00,Wunderground v.1.15,2013-06-03 21:30:00,
2013-06-03 15:40:00,97.6,43.8,29.54,ESE,107,1.0,1.0,16,0.00,,,0.00,Wunderground v.1.15,2013-06-03 21:40:00,
2013-06-03 15:45:00,97.4,45.3,29.54,West,263,1.0,1.0,17,0.00,,,0.00,Wunderground v.1.15,2013-06-03 21:45:00,
2013-06-03 15:50:00,97.4,45.3,29.54,WNW,288,1.0,1.0,17,0.00,,,0.00,Wunderground v.1.15,2013-06-03 21:50:00,
2013-06-03 15:55:00,97.4,46.8,29.53,SSE,163,1.0,1.0,18,0.00,,,0.00,Wunderground v.1.15,2013-06-03 21:55:00,
2013-06-03 16:00:00,97.2,45.1,29.54,WNW,296,1.0,1.0,17,0.00,,,0.00,Wunderground v.1.15,2013-06-03 22:00:00,
2013-06-03 16:05:00,96.8,44.8,29.53,WNW,296,1.0,1.0,17,0.00,,,0.00,Wunderground v.1.15,2013-06-03 22:05:00,
2013-06-03 16:15:00,96.5,44.6,29.52,East,98,2.0,2.0,17,0.00,,,0.00,Wunderground v.1.15,2013-06-03 22:15:00,
2013-06-03 16:20:00,96.6,44.6,29.52,WSW,242,0.0,0.0,17,0.00,,,0.00,Wunderground v.1.15,2013-06-03 22:20:00,
2013-06-03 16:25:00,96.6,44.6,29.52,SE,127,1.0,1.0,17,0.00,,,0.00,Wunderground v.1.15,2013-06-03 22:25:00,
2013-06-03 16:30:00,96.7,44.7,29.52,SSE,159,0.0,0.0,17,0.00,,,0.00,Wunderground v.1.15,2013-06-03 22:30:00,
2013-06-03 16:35:00,96.7,44.7,29.51,East,95,0.0,0.0,17,0.00,,,0.00,Wunderground v.1.15,2013-06-03 22:35:00,
2013-06-03 16:45:00,96.8,44.8,29.51,ESE,113,0.0,5.0,17,0.00,,,0.00,Wunderground v.1.15,2013-06-03 22:45:00,
2013-06-03 16:50:00,96.7,43.1,29.51,SSW,213,1.0,1.0,16,0.00,,,0.00,Wunderground v.1.15,2013-06-03 22:50:00,
2013-06-03 17:00:00,96.7,44.7,29.50,West,280,0.0,0.0,17,0.00,,,0.00,Wunderground v.1.15,2013-06-03 23:00:00,
2013-06-03 17:05:00,96.8,43.2,29.51,WSW,250,0.0,0.0,16,0.00,,,0.00,Wunderground v.1.15,2013-06-03 23:05:00,
2013-06-03 17:15:00,96.9,41.6,29.51,ESE,119,0.0,0.0,15,0.00,,,0.00,Wunderground v.1.15,2013-06-03 23:15:00,
2013-06-03 17:20:00,96.8,41.5,29.50,West,268,0.0,0.0,15,0.00,,,0.00,Wunderground v.1.15,2013-06-03 23:20:00,
2013-06-03 17:25:00,96.8,39.7,29.50,West,260,1.0,1.0,14,0.00,,,0.00,Wunderground v.1.15,2013-06-03 23:25:00,
2013-06-03 17:30:00,96.7,39.7,29.50,WSW,240,1.0,1.0,14,0.00,,,0.00,Wunderground v.1.15,2013-06-03 23:30:00,
2013-06-03 17:35:00,96.6,37.7,29.50,ENE,77,0.0,1.0,13,0.00,,,0.00,Wunderground v.1.15,2013-06-03 23:35:00,
2013-06-03 17:40:00,96.6,37.7,29.50,East,91,0.0,1.0,13,0.00,,,0.00,Wunderground v.1.15,2013-06-03 23:40:00,
2013-06-03 17:45:00,96.6,35.7,29.50,WNW,294,1.0,1.0,12,0.00,,,0.00,Wunderground v.1.15,2013-06-03 23:45:00,
2013-06-03 17:50:00,96.6,33.5,29.50,SSW,205,1.0,1.0,11,0.00,,,0.00,Wunderground v.1.15,2013-06-03 23:50:00,
2013-06-03 17:55:00,96.7,35.7,29.50,West,269,1.0,1.0,12,0.00,,,0.00,Wunderground v.1.15,2013-06-03 23:55:00,
2013-06-03 18:00:00,96.7,33.6,29.50,WNW,292,1.0,1.0,11,0.00,,,0.00,Wunderground v.1.15,2013-06-04 00:00:00,
2013-06-03 18:10:00,96.4,31.0,29.50,West,259,1.0,1.0,10,0.00,,,0.00,Wunderground v.1.15,2013-06-04 00:10:00,
2013-06-03 18:15:00,96.2,33.2,29.50,WNW,287,2.0,2.0,11,0.00,,,0.00,Wunderground v.1.15,2013-06-04 00:15:00,
2013-06-03 18:25:00,96.0,33.0,29.50,WNW,294,1.0,1.0,11,0.00,,,0.00,Wunderground v.1.15,2013-06-04 00:25:00,
2013-06-03 18:30:00,95.9,30.6,29.50,SW,231,0.0,0.0,10,0.00,,,0.00,Wunderground v.1.15,2013-06-04 00:30:00,
2013-06-03 18:35:00,95.9,32.9,29.50,WNW,286,0.0,0.0,11,0.00,,,0.00,Wunderground v.1.15,2013-06-04 00:35:00,
2013-06-03 18:40:00,95.8,30.5,29.50,SW,233,0.0,0.0,10,0.00,,,0.00,Wunderground v.1.15,2013-06-04 00:40:00,
2013-06-03 18:45:00,95.6,32.7,29.50,West,261,0.0,4.0,11,0.00,,,0.00,Wunderground v.1.15,2013-06-04 00:45:00,
2013-06-03 18:50:00,95.5,32.6,29.50,WNW,298,1.0,2.0,11,0.00,,,0.00,Wunderground v.1.15,2013-06-04 00:50:00,
2013-06-03 18:55:00,95.2,32.4,29.51,West,276,2.0,2.0,11,0.00,,,0.00,Wunderground v.1.15,2013-06-04 00:55:00,
2013-06-03 19:00:00,94.9,32.2,29.51,West,264,2.0,2.0,11,0.00,,,0.00,Wunderground v.1.15,2013-06-04 01:00:00,
2013-06-03 19:05:00,94.7,32.0,29.49,West,268,1.0,4.0,11,0.00,,,0.00,Wunderground v.1.15,2013-06-04 01:05:00,
2013-06-03 19:15:00,94.0,33.7,29.49,WNW,296,1.0,2.0,12,0.00,,,0.00,Wunderground v.1.15,2013-06-04 01:15:00,
2013-06-03 19:20:00,93.8,33.5,29.50,WNW,302,1.0,1.0,12,0.00,,,0.00,Wunderground v.1.15,2013-06-04 01:20:00,
2013-06-03 19:30:00,93.3,33.1,29.51,WNW,286,1.0,2.0,12,0.00,,,0.00,Wunderground v.1.15,2013-06-04 01:30:00,
2013-06-03 19:35:00,92.9,32.8,29.51,WNW,292,1.0,2.0,12,0.00,,,0.00,Wunderground v.1.15,2013-06-04 01:35:00,
2013-06-03 19:45:00,92.1,32.2,29.51,West,268,0.0,1.0,12,0.00,,,0.00,Wunderground v.1.15,2013-06-04 01:45:00,
2013-06-03 19:50:00,91.7,31.9,29.52,SW,236,0.0,0.0,12,0.00,,,0.00,Wunderground v.1.15,2013-06-04 01:50:00,
2013-06-03 19:55:00,91.3,31.6,29.53,West,264,0.0,4.0,12,0.00,,,0.00,Wunderground v.1.15,2013-06-04 01:55:00,
2013-06-03 20:05:00,90.6,33.0,29.51,WNW,282,0.0,0.0,13,0.00,,,0.00,Wunderground v.1.15,2013-06-04 02:05:00,
2013-06-03 20:15:00,89.9,30.5,29.52,West,268,0.0,0.0,12,0.00,,,0.00,Wunderground v.1.15,2013-06-04 02:15:00,
2013-06-03 20:20:00,89.5,30.2,29.52,West,281,0.0,0.0,12,0.00,,,0.00,Wunderground v.1.15,2013-06-04 02:20:00,
2013-06-03 20:25:00,89.1,29.9,29.52,WNW,283,0.0,0.0,12,0.00,,,0.00,Wunderground v.1.15,2013-06-04 02:25:00,
2013-06-03 20:30:00,88.7,29.6,29.52,WNW,284,0.0,0.0,12,0.00,,,0.00,Wunderground v.1.15,2013-06-04 02:30:00,
2013-06-03 20:35:00,88.4,29.3,29.53,WNW,284,0.0,0.0,12,0.00,,,0.00,Wunderground v.1.15,2013-06-04 02:35:00,
2013-06-03 20:40:00,88.0,29.0,29.53,WNW,284,0.0,0.0,12,0.00,,,0.00,Wunderground v.1.15,2013-06-04 02:40:00,
2013-06-03 20:50:00,87.2,28.4,29.54,WNW,287,0.0,0.0,12,0.00,,,0.00,Wunderground v.1.15,2013-06-04 02:50:00,
2013-06-03 20:55:00,86.9,28.2,29.54,WNW,287,0.0,0.0,12,0.00,,,0.00,Wunderground v.1.15,2013-06-04 02:55:00,
2013-06-03 21:00:00,86.5,27.8,29.54,WNW,287,0.0,0.0,12,0.00,,,0.00,Wunderground v.1.15,2013-06-04 03:00:00,
2013-06-03 21:05:00,86.1,27.5,29.53,WNW,287,0.0,0.0,12,0.00,,,0.00,Wunderground v.1.15,2013-06-04 03:05:00,
2013-06-03 21:15:00,85.4,28.9,29.54,WNW,287,0.0,0.0,13,0.00,,,0.00,Wunderground v.1.15,2013-06-04 03:15:00,
2013-06-03 21:20:00,84.9,28.6,29.54,WNW,287,0.0,0.0,13,0.00,,,0.00,Wunderground v.1.15,2013-06-04 03:20:00,
2013-06-03 21:25:00,84.5,30.1,29.55,WNW,287,0.0,0.0,14,0.00,,,0.00,Wunderground v.1.15,2013-06-04 03:25:00,
2013-06-03 21:30:00,83.9,29.6,29.55,WNW,287,0.0,0.0,14,0.00,,,0.00,Wunderground v.1.15,2013-06-04 03:30:00,
2013-06-03 21:35:00,83.4,29.2,29.56,WNW,287,0.0,0.0,14,0.00,,,0.00,Wunderground v.1.15,2013-06-04 03:35:00,
2013-06-03 21:45:00,82.3,28.3,29.56,WNW,287,0.0,0.0,14,0.00,,,0.00,Wunderground v.1.15,2013-06-04 03:45:00,
2013-06-03 21:50:00,81.9,29.7,29.56,WNW,287,0.0,0.0,15,0.00,,,0.00,Wunderground v.1.15,2013-06-04 03:50:00,
2013-06-03 21:55:00,81.4,29.3,29.57,WNW,287,0.0,0.0,15,0.00,,,0.00,Wunderground v.1.15,2013-06-04 03:55:00,
2013-06-03 22:05:00,80.5,28.6,29.56,WNW,287,0.0,0.0,15,0.00,,,0.00,Wunderground v.1.15,2013-06-04 04:05:00,
2013-06-03 22:10:00,80.0,28.2,29.57,WNW,287,0.0,0.0,15,0.00,,,0.00,Wunderground v.1.15,2013-06-04 04:10:00,
2013-06-03 22:15:00,79.6,29.4,29.57,WNW,287,0.0,0.0,16,0.00,,,0.00,Wunderground v.1.15,2013-06-04 04:15:00,
2013-06-03 22:20:00,79.3,29.2,29.57,WNW,287,0.0,0.0,16,0.00,,,0.00,Wunderground v.1.15,2013-06-04 04:20:00,
2013-06-03 22:25:00,78.9,30.4,29.57,WNW,287,0.0,0.0,17,0.00,,,0.00,Wunderground v.1.15,2013-06-04 04:25:00,
2013-06-03 22:30:00,78.6,30.1,29.57,WNW,287,0.0,0.0,17,0.00,,,0.00,Wunderground v.1.15,2013-06-04 04:30:00,
2013-06-03 22:35:00,78.2,29.8,29.57,WNW,287,0.0,0.0,17,0.00,,,0.00,Wunderground v.1.15,2013-06-04 04:35:00,
2013-06-03 22:40:00,77.8,29.5,29.57,WNW,287,0.0,0.0,17,0.00,,,0.00,Wunderground v.1.15,2013-06-04 04:40:00,
2013-06-03 22:45:00,77.5,27.7,29.57,WNW,287,0.0,0.0,16,0.00,,,0.00,Wunderground v.1.15,2013-06-04 04:45:00,
2013-06-03 22:50:00,77.1,27.4,29.58,WNW,287,0.0,0.0,16,0.00,,,0.00,Wunderground v.1.15,2013-06-04 04:50:00,
2013-06-03 22:55:00,76.7,28.6,29.57,WNW,287,0.0,0.0,17,0.00,,,0.00,Wunderground v.1.15,2013-06-04 04:55:00,
2013-06-03 23:05:00,76.1,29.5,29.57,WNW,287,0.0,0.0,18,0.00,,,0.00,Wunderground v.1.15,2013-06-04 05:05:00,
2013-06-03 23:15:00,75.3,27.4,29.57,WNW,287,0.0,0.0,17,0.00,,,0.00,Wunderground v.1.15,2013-06-04 05:15:00,
2013-06-03 23:20:00,74.9,27.1,29.57,WNW,287,0.0,0.0,17,0.00,,,0.00,Wunderground v.1.15,2013-06-04 05:20:00,
2013-06-03 23:30:00,74.3,26.6,29.57,WNW,287,0.0,0.0,17,0.00,,,0.00,Wunderground v.1.15,2013-06-04 05:30:00,
2013-06-03 23:35:00,74.0,27.8,29.57,WNW,287,0.0,0.0,18,0.00,,,0.00,Wunderground v.1.15,2013-06-04 05:35:00,
2013-06-03 23:45:00,73.6,28.8,29.57,WNW,287,0.0,0.0,19,0.00,,,0.00,Wunderground v.1.15,2013-06-04 05:45:00,
2013-06-03 23:50:00,73.4,28.6,29.57,WNW,287,0.0,0.0,19,0.00,,,0.00,Wunderground v.1.15,2013-06-04 05:50:00,
2013-06-03 23:55:00,73.1,27.0,29.58,WNW,287,0.0,0.0,18,0.00,,,0.00,Wunderground v.1.15,2013-06-04 05:55:00,